Theta_e
356 357 357 357 357 356 356 355 354 355 356 356 356 356 357 356 357 355 354 353 350 348 347 345 345 337 332 338 342 342 341 337 335 337 339 339 338 338 338 337 339 339
357 357 357 357 357 357 357 356 355 355 356 356 355 355 356 356 356 355 354 353 350 348 347 345 345 338 332 336 342 342 340 336 336 338 340 339 337 336 336 338 339 339
357 357 357 357 357 357 357 357 356 356 356 356 355 355 356 356 356 355 354 352 350 349 347 345 344 339 332 334 341 343 341 338 338 340 341 339 337 336 336 338 339 339
357 357 357 357 357 357 357 358 357 357 357 356 355 355 356 355 355 355 353 351 351 349 346 345 344 341 333 332 339 343 342 341 340 340 341 339 339 338 337 338 340 340
358 358 358 358 358 358 358 358 358 358 357 356 355 355 355 355 355 354 353 352 351 348 346 345 344 342 336 332 337 341 342 341 341 341 341 339 340 341 338 337 339 340
358 358 359 359 358 359 358 359 359 358 358 357 356 355 355 355 354 354 353 351 350 347 346 345 344 343 340 335 337 341 342 341 341 341 340 339 340 341 339 338 338 339
358 358 359 359 359 359 359 359 359 359 358 357 356 355 355 355 355 354 353 351 349 348 346 345 344 344 342 338 338 341 342 341 341 341 340 340 340 340 340 339 338 338
359 359 359 359 360 360 360 359 359 359 358 358 357 356 356 355 355 354 353 352 350 349 347 345 344 343 342 341 340 342 343 342 341 341 340 340 340 340 341 341 340 338
360 360 360 360 360 360 360 360 359 359 359 358 357 357 357 356 355 354 353 352 351 349 347 345 344 343 342 341 341 342 344 343 341 341 340 340 340 340 340 341 341 340
361 361 361 361 361 360 360 360 359 359 359 358 358 357 357 356 356 355 354 352 350 348 347 345 345 344 343 341 340 340 342 343 343 342 340 339 340 339 339 340 341 341
361 362 361 361 361 361 360 360 360 359 359 359 358 358 358 357 356 355 353 352 350 349 347 346 345 345 344 342 339 339 341 343 343 343 341 340 339 338 338 339 341 341
362 362 362 361 361 361 361 361 360 359 359 359 359 358 358 357 356 355 353 351 350 348 347 346 346 346 344 343 341 339 341 343 343 342 342 341 339 338 338 339 340 341
362 362 362 361 361 361 360 360 360 359 359 360 359 359 358 357 356 355 353 352 350 348 347 347 346 346 345 344 342 340 341 343 343 342 341 341 341 339 339 340 340 340
362 362 362 361 361 361 361 360 360 360 359 359 360 359 359 358 357 355 354 352 350 348 348 347 346 346 345 344 343 341 341 343 342 341 341 341 342 341 340 340 340 340
362 362 362 362 361 361 360 360 360 359 359 359 359 359 359 359 357 356 354 352 351 349 348 348 347 347 346 345 344 341 341 342 343 341 341 342 342 342 341 341 340 341
363 362 362 362 361 361 361 360 359 359 359 359 359 359 359 359 358 357 355 353 351 350 348 348 347 347 347 346 344 342 341 343 343 342 342 342 342 341 341 341 340 341
363 363 362 362 362 361 360 360 359 359 359 359 359 359 359 359 359 358 356 354 353 351 349 348 348 347 347 346 345 343 342 342 343 343 342 342 342 341 340 340 340 340
363 363 363 362 362 361 361 361 360 359 359 358 358 359 359 359 359 357 357 355 353 352 351 349 349 348 347 346 345 344 342 339 340 342 343 342 342 341 340 340 340 340
364 364 363 362 362 362 361 361 360 360 360 359 358 358 358 359 359 358 357 356 354 353 352 350 350 348 347 346 345 344 342 338 338 341 343 342 342 342 341 340 340 339
364 364 364 363 363 362 362 362 361 360 360 359 359 359 358 359 359 358 357 356 355 354 352 352 351 349 348 346 344 344 343 340 339 340 342 342 342 342 341 340 340 339
365 365 364 363 363 362 362 362 362 361 361 360 360 359 358 359 358 358 358 356 355 354 353 352 351 350 348 346 345 345 343 340 338 338 340 341 341 341 341 341 340 340
366 365 365 364 363 362 363 362 362 362 361 361 360 359 359 359 359 358 358 357 356 355 354 352 351 350 349 347 346 345 343 341 337 335 337 340 341 341 341 341 340 340
366 366 365 364 363 363 363 362 363 362 362 362 361 360 360 360 359 359 358 357 356 355 354 352 350 349 349 347 346 345 343 342 339 335 334 337 340 341 341 341 341 341
366 366 365 365 364 363 363 362 363 363 362 362 362 361 360 360 360 359 358 357 356 355 354 353 351 349 348 347 347 346 345 343 341 337 334 336 340 342 341 342 342 341
366 366 365 365 364 364 363 363 363 363 363 362 362 362 361 360 360 359 358 357 356 355 355 353 351 349 348 347 347 347 345 343 341 338 335 335 338 339 340 341 341 341
366 366 366 366 365 364 364 363 363 363 363 363 362 362 361 361 360 359 357 356 355 355 354 352 350 349 348 348 348 347 345 343 340 338 334 332 332 335 338 340 340 340
Wind_Speed
41 40 38 37 37 37 36 35 35 35 35 35 35 36 37 36 34 33 32 31 31 30 29 28 25 24 25 25 22 22 22 20 18 17 16 16 16 16 15 14 12 10
41 40 38 36 36 36 36 36 36 36 36 36 36 36 37 37 36 34 33 32 32 32 31 30 27 25 26 26 24 23 23 22 21 19 18 18 18 17 17 16 14 12
41 40 38 37 37 37 36 36 36 36 37 36 36 37 38 38 37 36 35 34 34 33 33 31 28 26 27 26 25 24 23 23 23 22 21 20 20 19 18 18 16 14
41 40 39 38 37 37 36 36 36 36 37 37 37 38 38 38 37 37 36 35 35 35 34 33 30 28 27 27 27 25 24 23 24 24 23 21 21 19 18 20 18 16
41 40 39 38 37 36 36 36 37 37 37 38 39 39 39 38 38 38 37 37 37 36 36 34 31 29 27 27 28 27 26 24 24 26 25 23 22 20 18 19 20 18
40 40 39 38 37 36 36 37 38 38 38 39 39 39 39 39 39 39 38 38 38 38 37 35 34 32 29 28 28 28 27 25 25 27 26 24 24 21 19 19 20 21
39 39 38 38 37 37 37 38 39 40 40 39 39 40 39 39 39 39 40 40 40 39 38 37 36 34 31 29 30 30 29 28 27 28 28 26 25 24 22 21 21 22
39 39 38 38 38 38 38 38 39 40 41 40 40 40 40 40 40 40 40 41 41 40 39 38 37 35 33 32 32 32 32 31 30 30 30 28 27 26 24 23 22 22
39 38 38 38 38 38 39 39 39 41 41 41 41 41 40 41 41 41 41 41 42 41 40 39 38 36 35 34 34 35 34 34 33 32 32 30 29 27 24 23 24 24
39 38 38 39 39 40 40 40 40 40 41 41 41 40 40 41 41 40 41 41 42 42 40 39 38 37 37 36 36 37 37 36 35 34 33 32 31 30 26 24 25 26
40 39 39 40 40 40 40 41 40 40 41 41 40 40 40 41 41 40 40 42 42 42 40 40 40 39 39 38 38 39 38 37 36 35 33 32 32 31 29 26 25 26
41 40 40 41 41 41 41 41 41 40 40 40 40 40 40 40 40 40 41 42 42 41 40 40 41 41 41 40 39 39 38 37 36 34 33 32 32 31 30 28 26 26
42 42 42 42 42 42 41 41 41 41 40 40 40 40 39 39 40 41 42 42 41 40 40 40 41 42 42 40 40 40 38 36 34 33 33 33 33 31 30 29 28 27
43 43 43 43 42 42 42 41 41 41 40 39 39 39 39 39 40 40 40 39 39 40 40 40 41 42 42 41 41 39 37 35 33 32 32 32 31 31 31 30 29 28
42 42 42 42 42 41 42 42 41 40 39 39 38 39 40 40 39 39 38 38 38 38 39 40 42 43 44 43 41 39 37 34 32 32 32 30 29 30 31 30 29 29
41 41 40 41 41 42 42 42 41 40 39 38 38 39 39 39 38 37 37 38 38 38 39 40 42 44 45 44 42 39 35 31 30 31 32 30 29 30 31 30 30 28
40 40 39 40 41 41 41 41 40 39 39 38 38 38 38 38 37 37 38 39 38 39 39 40 43 45 45 44 42 36 29 27 29 31 31 29 29 30 31 31 30 28
40 40 39 40 41 41 41 40 39 38 38 38 38 38 38 37 37 37 39 39 38 39 40 42 44 45 45 43 39 33 30 33 34 31 30 29 29 30 31 31 30 29
40 40 40 40 41 41 40 38 38 38 38 38 39 39 38 37 37 38 38 39 39 40 41 42 43 44 44 40 35 36 38 40 36 32 31 30 29 30 31 30 29 28
40 40 40 41 41 40 38 38 38 38 38 39 39 38 36 37 38 38 39 39 40 41 41 42 42 43 41 37 36 40 42 39 34 33 31 30 29 30 29 29 28 27
40 40 40 40 39 39 39 39 39 38 38 38 37 37 38 39 39 39 39 39 40 40 40 40 41 40 37 36 38 42 42 38 34 34 31 28 28 28 28 29 29 28
41 41 39 39 39 39 39 39 39 38 38 38 37 37 38 38 38 39 39 39 39 39 39 39 38 36 35 37 38 39 40 38 35 35 33 29 27 27 28 29 29 28
42 41 39 39 39 39 39 40 39 39 39 39 38 37 37 38 38 39 39 38 38 38 38 36 34 33 34 37 37 36 38 38 37 37 35 31 27 27 28 28 27 26
42 42 40 39 39 40 40 39 39 39 39 39 39 39 38 38 38 37 36 37 37 38 38 36 34 34 34 36 37 36 38 40 40 38 34 31 28 25 24 25 26 26
42 42 42 40 40 41 41 40 40 40 40 40 39 39 37 36 36 35 34 35 36 37 39 38 36 35 35 36 36 36 38 40 38 34 32 32 29 25 22 22 25 26
42 42 43 42 42 41 40 40 40 39 38 38 37 36 35 33 33 34 33 34 35 37 38 38 36 34 34 35 35 36 38 38 35 34 34 32 28 24 22 22 25 27
Wind_Direction
208 208 207 206 206 207 206 205 206 207 208 206 204 205 205 205 205 204 205 208 210 211 214 215 215 212 205 205 209 214 219 218 216 216 213 212 211 207 203 199 200 204
209 209 209 208 208 208 208 207 207 207 208 209 208 208 207 206 205 205 206 209 210 212 214 215 217 213 207 207 211 213 215 216 217 218 219 219 217 213 209 205 207 210
209 209 209 209 209 209 209 209 208 208 209 211 212 210 207 206 206 206 207 209 210 212 214 215 217 215 209 209 211 212 213 215 217 217 220 221 220 217 213 210 211 214
208 209 209 210 210 210 210 209 209 209 209 211 211 208 206 205 206 206 208 210 211 211 213 216 218 215 211 210 212 215 216 217 218 217 219 219 219 219 216 213 214 216
209 209 209 210 211 210 210 209 209 208 208 209 209 207 206 206 206 207 208 210 210 212 214 217 218 215 212 211 213 218 219 219 218 216 217 219 218 220 221 217 216 218
209 209 209 210 211 210 210 210 210 209 208 209 208 207 207 208 208 208 209 209 209 212 215 217 217 216 214 212 213 219 221 219 217 215 217 220 218 220 224 222 219 220
208 209 209 210 210 211 211 211 210 210 210 209 208 209 209 209 209 209 209 209 209 212 215 216 216 215 214 213 213 218 221 219 217 215 218 220 219 221 224 224 222 221
207 208 208 209 210 211 212 212 212 211 211 210 210 210 210 210 211 210 210 210 210 213 215 215 216 215 214 214 214 217 220 220 219 218 218 219 219 221 224 224 223 223
206 208 208 209 210 212 213 213 213 212 211 211 211 211 211 212 212 212 211 211 211 213 213 214 215 215 215 215 216 217 218 220 221 221 221 220 220 221 223 223 223 224
205 206 207 208 210 212 213 213 213 213 212 212 212 211 212 213 213 213 212 211 211 212 212 212 214 215 215 217 218 219 218 219 221 222 223 223 223 223 223 223 224 225
204 205 206 208 210 212 213 213 213 213 212 212 211 211 213 213 213 212 212 211 212 212 211 211 214 216 217 217 220 221 220 219 220 222 224 225 226 225 223 224 225 226
203 204 206 208 210 211 213 213 213 213 212 212 211 212 213 213 213 212 212 213 212 211 211 211 214 218 219 219 220 221 221 220 220 221 224 227 228 227 225 225 226 227
202 203 205 207 209 211 212 213 213 213 213 212 212 212 213 213 213 213 214 213 212 211 212 213 215 218 219 219 220 222 221 220 220 221 224 227 228 229 229 228 229 230
202 203 205 207 209 210 212 213 214 213 213 212 212 212 213 215 214 214 214 213 213 212 213 214 217 218 219 219 220 221 221 220 220 220 223 226 227 230 231 232 233 234
202 203 205 206 208 209 211 213 214 214 213 213 212 213 214 216 216 216 214 213 213 213 213 215 217 219 220 219 218 219 220 220 220 221 224 225 226 228 231 232 234 236
201 202 204 205 207 209 210 211 213 213 213 213 213 214 214 215 216 216 215 214 213 212 213 215 217 221 221 220 219 218 218 219 221 223 224 225 225 227 229 231 232 234
201 202 203 204 206 209 210 211 212 212 213 213 213 214 215 215 215 215 215 215 214 213 214 215 219 222 222 220 218 213 212 220 226 226 225 225 226 227 227 228 230 231
201 201 202 204 206 208 210 210 211 211 212 213 213 214 215 214 214 214 215 215 214 214 215 217 221 223 222 220 213 203 211 226 228 227 228 227 228 229 229 229 229 228
201 200 202 204 205 207 208 209 209 210 211 212 213 215 214 213 214 215 215 215 214 215 216 219 222 223 222 219 205 200 215 226 225 225 229 229 228 230 230 230 229 228
200 200 202 204 205 205 206 207 208 210 211 212 213 214 213 213 214 215 215 215 214 215 217 219 223 223 221 215 205 206 216 221 221 226 231 231 231 231 230 230 230 228
199 201 202 203 203 203 204 206 207 208 210 211 212 213 213 214 214 215 215 215 215 215 217 219 222 222 218 212 211 214 213 211 219 227 231 234 235 232 232 232 231 229
199 201 201 201 201 200 202 204 205 206 208 209 211 213 214 215 215 215 215 215 214 215 216 219 221 220 215 212 215 215 208 205 216 225 227 233 236 233 233 234 232 231
199 199 200 199 198 199 201 203 203 205 206 207 208 211 212 213 214 215 215 214 213 213 214 216 217 216 214 213 214 213 207 206 213 218 221 228 232 231 232 231 229 229
199 199 199 197 197 199 200 201 202 203 205 205 206 208 211 212 213 213 213 212 212 212 212 214 214 213 212 211 212 214 211 209 210 212 215 222 227 228 231 230 227 225
199 198 198 197 197 198 199 199 200 202 203 204 205 207 210 211 210 209 209 209 210 211 213 213 212 210 209 210 213 216 214 210 207 206 210 219 225 227 230 229 225 223
199 198 198 197 196 197 198 198 199 200 201 201 202 205 207 207 206 204 205 206 208 210 211 211 208 206 206 211 216 218 214 208 204 205 209 216 221 224 227 224 221 220